www.pogodaiklimat.ru

Погода и климат >> Архив погоды >> Швейцария >> Гренхен


ПОГОДА в Гренхене

  • Прогноз погоды в Гренхене
  • Монитор погоды в Гренхене

АРХИВ ПОГОДЫ в Гренхене

Время (UTC), дата Ветер
(напр.,м/с)
 
Видим.   Явления Облачность Т
(С)
Тd
(С)
f
(%)
Тe
(С)
Тes
(С)
Комфортность P
(гПа)
Po
(гПа)
Тmin
(С)
Tmax
(С)
R
(мм)
R24
(мм)
S
(см)
07 13.09 Ю 1
{2}
н/о н/о +12.6 +11.9 95 +13 +13 1033.4 982.1
08 13.09 В 1
{2}
н/о н/о +15.4 +12.7 84 +17 +17 1032.9 982.2
09 13.09 СЗ 1
{2}
н/о н/о +18.7 +13.0 69 +21 +21 комфорт 1032.1 982.0
10 13.09 ЮВ 1
{3}
н/о н/о +21.0 +12.2 57 +24 +24 комфорт 1031.3 981.6
11 13.09 В 2
{4}
н/о н/о +23.0 +11.3 48 +25 +25 комфорт 1030.1 980.8
12 13.09 В 3
{6}
н/о н/о +24.6 +11.6 44 +26 +26 жарко 1029.2 980.3
13 13.09 В 3
{5}
н/о н/о +25.5 +12.9 46 +27 +27 жарко 1028.6 979.8
14 13.09 В 2
{4}
н/о н/о +26.4 +13.1 44 +28 +28 жарко 1028.3 979.7
15 13.09 В 4
{6}
н/о н/о +27.0 +13.7 44 +29 +29 жарко 1027.5 979.0
16 13.09 В 4
{7}
н/о н/о +26.5 +13.8 46 +29 +29 жарко 1027.4 978.9
17 13.09 В 2
{6}
н/о н/о +24.6 +13.0 48 +27 +27 жарко 1028.1 979.2
18 13.09 В 2
{7}
н/о н/о +20.5 +12.6 60 +23 +23 комфорт 1029.0 979.4 +27.1
19 13.09 В 2
{3}
н/о н/о +17.3 +12.5 73 +18 +18 1029.7 979.5
20 13.09 СВ 1
{2}
н/о н/о +16.4 +12.8 79 +18 +18 1030.0 979.6
21 13.09 В 1
{3}
н/о н/о +15.6 +13.0 85 +17 +17 1030.5 979.9
22 13.09 штиль 0
{1}
н/о н/о +13.4 +12.0 91 +13 +13 1030.8 979.8
23 13.09 штиль 0
{1}
н/о н/о +13.1 +12.1 94 +13 +13 1030.8 979.8
00 14.09 Ю 1
{3}
н/о н/о +13.3 +12.4 94 +14 +14 1031.2 980.2
01 14.09 СВ 2
{2}
н/о н/о +10.7 +10.1 96 +10 +10 1031.0 979.5
02 14.09 штиль 0
{2}
н/о н/о +11.1 +10.9 99 +10 +10 1030.7 979.3
03 14.09 штиль 0
{2}
н/о н/о +10.7 +10.6 99 +10 +10 1030.5 979.0
04 14.09 С 3
{3}
н/о н/о +12.9 +12.7 99 +12 +12 1030.0 979.0
05 14.09 штиль 0
{5}
н/о н/о +11.6 +11.4 99 +11 +11 1030.5 979.2
06 14.09 СВ 1
{5}
н/о н/о +12.1 +11.9 99 +12 +12 1030.8 979.6 +10.6
07 14.09 СВ 3
{3}
н/о н/о +16.0 +14.2 89 +16 +16 1030.5 980.0
08 14.09 СВ 4
{5}
н/о н/о +17.7 +14.3 80 +18 +18 1030.4 980.2
09 14.09 В 4
{6}
н/о н/о +19.1 +14.2 73 +20 +20 1029.9 980.0
10 14.09 В 3
{6}
н/о н/о +19.7 +14.6 72 +22 +22 комфорт 1029.5 979.7
11 14.09 В 3
{5}
н/о н/о +21.2 +14.9 67 +24 +24 комфорт 1028.4 978.9
12 14.09 В 4
{6}
н/о н/о +23.1 +14.9 60 +27 +27 душно 1027.1 978.0
13 14.09 В 4
{6}
н/о н/о +23.8 +14.8 57 +27 +27 жарко 1026.5 977.5
14 14.09 В 4
{6}
н/о н/о +24.2 +15.1 57 +27 +27 жарко 1026.0 977.1
15 14.09 В 4
{6}
н/о н/о +24.8 +15.6 57 +28 +28 жарко 1025.3 976.6
16 14.09 В 4
{6}
н/о н/о +24.8 +15.8 57 +28 +28 жарко 1025.2 976.5
17 14.09 В 4
{6}
н/о н/о +23.5 +15.9 62 +27 +27 душно 1025.7 976.7
18 14.09 СВ 2
{6}
н/о н/о +20.0 +15.8 77 +23 +23 комфорт 1026.7 977.1 +25.0
19 14.09 ЮВ 1
{3}
н/о н/о +17.9 +15.1 84 +20 +20 1027.2 977.2
20 14.09 штиль 0
{1}
н/о н/о +16.7 +15.1 90 +17 +17 1027.1 976.9
21 14.09 В 1
{3}
н/о н/о +15.1 +14.2 94 +16 +16 1027.4 976.9
22 14.09 В 1
{2}
н/о н/о +14.0 +13.5 97 +14 +14 1027.5 976.8
23 14.09 В 1
{1}
н/о н/о +13.5 +13.3 99 +14 +14 1027.4 976.6
00 15.09 штиль 0
{3}
н/о н/о +12.9 +12.4 97 +12 +12 1027.6 976.7
01 15.09 ЮЗ 1
{1}
н/о н/о +12.2 +12.1 99 +13 +13 1027.5 976.5
02 15.09 штиль 0
{1}
н/о н/о +11.8 +11.7 99 +11 +11 1027.3 976.2
03 15.09 штиль 0
{1}
н/о н/о +12.0 +11.9 99 +11 +11 1027.4 976.3
04 15.09 ЮВ 1
{1}
н/о н/о +13.3 +13.2 99 +14 +14 1027.0 976.2
05 15.09 штиль 0
{1}
н/о н/о +13.6 +13.5 99 +13 +13 1027.3 976.5
06 15.09 Ю 1
{1}
н/о н/о +13.5 +13.4 99 +14 +14 1027.3 976.5 +11.8
07 15.09 штиль 0
{1}
н/о н/о +13.9 +13.8 99 +13 +13 1027.0 976.3
08 15.09 ЮЗ 1
{2}
н/о н/о +15.1 +15.0 99 +16 +16 1026.8 976.3
09 15.09 ЮЗ 2
{3}
н/о н/о +16.2 +15.8 97 +16 +16 1026.8 976.5
10 15.09 ЮЗ 2
{4}
н/о н/о +20.7 +16.6 77 +25 +25 комфорт 1025.3 975.9
11 15.09 Ю 2
{5}
н/о н/о +22.8 +16.7 68 +27 +27 душно 1024.3 975.3
12 15.09 ЮЗ 3
{5}
н/о н/о +24.5 +16.6 61 +28 +28 душно 1023.5 974.8
13 15.09 З 4
{6}
н/о н/о +25.8 +15.6 53 +29 +29 душно 1022.5 974.1
14 15.09 ЮЗ 3
{6}
н/о н/о +26.4 +15.8 52 +30 +30 душно 1021.5 973.2
15 15.09 ЮЗ 2
{6}
н/о н/о +26.9 +15.4 49 +30 +30 душно 1020.8 972.6
16 15.09 З 1
{3}
н/о н/о +27.0 +14.8 47 +30 +30 душно 1020.3 972.2
17 15.09 З 1
{3}
н/о н/о +26.2 +15.4 51 +29 +29 жарко 1020.0 971.8
18 15.09 СВ 1
{6}
н/о н/о +20.6 +15.6 73 +25 +25 комфорт 1021.1 971.9 +27.0
19 15.09 СВ 1
{2}
н/о н/о +19.0 +15.2 79 +22 +22 комфорт 1021.7 972.2
20 15.09 СВ 2
{2}
н/о н/о +16.6 +14.5 87 +17 +17 1022.5 972.5
21 15.09 В 1
{2}
н/о н/о +14.9 +12.9 88 +15 +15 1022.9 972.6
22 15.09 ЮЗ 1
{1}
н/о н/о +15.3 +14.1 93 +16 +16 1023.1 972.8
23 15.09 ЮВ 1
{2}
н/о н/о +14.3 +13.3 94 +15 +15 1023.2 972.8
00 16.09 ЮВ 1
{2}
н/о н/о +13.3 +12.5 95 +13 +13 1023.4 972.8
01 16.09 ЮВ 1
{1}
н/о н/о +13.3 +12.8 97 +14 +14 1023.3 972.7
02 16.09 СЗ 1
{1}
н/о н/о +12.6 +12.2 97 +13 +13 1023.0 972.3
03 16.09 З 1
{1}
н/о н/о +12.1 +12.0 99 +13 +13 1022.9 972.1
04 16.09 З 1
{1}
н/о н/о +11.6 +11.5 99 +11 +11 1022.7 971.8
05 16.09 З 1
{1}
н/о н/о +11.2 +11.1 99 +12 +12 1022.6 971.6
06 16.09 штиль 0
{1}
н/о н/о +11.5 +11.4 99 +11 +11 1022.6 971.7 +10.9
07 16.09 ЮЗ 1
{2}
н/о н/о +15.4 +15.0 97 +16 +16 1021.9 971.7
08 16.09 ЮЗ 2
{3}
н/о н/о +18.0 +16.2 89 +19 +19 1021.6 971.9
09 16.09 Ю 2
{3}
н/о н/о +20.3 +15.7 75 +24 +24 комфорт 1021.1 971.8
10 16.09 ЮЗ 2
{4}
н/о н/о +22.7 +15.6 64 +27 +27 душно 1020.2 971.4
11 16.09 ЮЗ 3
{5}
н/о н/о +24.7 +16.0 58 +28 +28 душно 1019.5 971.0
12 16.09 Ю 2
{5}
н/о н/о +25.5 +15.7 55 +29 +29 душно 1018.7 970.4
13 16.09 ЮЗ 2
{5}
н/о н/о +26.7 +15.2 49 +29 +29 жарко 1017.7 969.7
14 16.09 ЮЗ 3
{7}
н/о н/о +27.9 +13.8 42 +30 +30 жарко 1016.9 969.1
15 16.09 ЮЗ 3
{7}
н/о н/о +28.0 +14.4 43 +30 +30 жарко 1016.3 968.5
16 16.09 ЮЗ 4
{5}
н/о н/о +28.0 +13.7 41 +30 +30 жарко 1015.9 968.2
17 16.09 З 3
{5}
н/о н/о +27.1 +12.2 40 +29 +29 жарко 1016.0 968.1
18 16.09 Ю 1
{7}
н/о н/о +23.3 +12.8 52 +26 +26 жарко 1017.0 968.4 +28.3
19 16.09 ЮЗ 3
{6}
н/о н/о +25.4 +12.2 44 +27 +27 жарко 1016.8 968.6
20 16.09 ЮЗ 2
{6}
н/о н/о +19.5 +13.2 67 +22 +22 комфорт 1018.1 968.8
21 16.09 В 1
{6}
н/о н/о +16.9 +13.2 79 +18 +18 1018.9 969.1
22 16.09 В 1
{2}
н/о н/о +15.2 +12.6 84 +16 +16 1019.2 969.1
23 16.09 В 1
{2}
н/о н/о +13.6 +12.0 90 +15 +15 1019.3 968.9
00 17.09 С 1
{6}
н/о н/о +13.4 +12.2 92 +14 +14 1019.3 968.9
01 17.09 штиль 0
{1}
н/о н/о +12.8 +12.1 96 +12 +12 1019.4 968.9
02 17.09 штиль 0
{1}
н/о н/о +11.9 +11.2 95 +11 +11 1019.3 968.6
03 17.09 штиль 0
{1}
н/о н/о +11.9 +11.4 97 +11 +11 1019.4 968.7
04 17.09 СВ 1
{2}
н/о н/о +10.7 +10.3 97 +10 +10 1019.6 968.7
05 17.09 В 1
{1}
н/о н/о +12.4 +12.3 99 +13 +13 1019.4 968.8
06 17.09 В 1
{2}
н/о н/о +11.0 +10.9 99 +11 +11 1019.9 969.0 +10.7
07 17.09 В 2
{2}
н/о н/о +15.5 +13.9 90 +16 +16 1019.2 969.2
08 17.09 СВ 2
{2}
н/о н/о +18.1 +14.7 81 +19 +19 1019.1 969.5
09 17.09 В 1
{3}
н/о н/о +20.3 +14.8 71 +24 +24 комфорт 1018.6 969.4
10 17.09 В 1
{3}
н/о н/о +22.2 +12.9 56 +25 +25 комфорт 1017.9 969.1
11 17.09 ЮВ 2
{4}
н/о н/о +24.0 +13.1 51 +26 +26 жарко 1017.2 968.7
12 17.09 ЮВ 2
{4}
н/о н/о +25.1 +10.8 41 +26 +26 жарко 1016.5 968.2
13 17.09 В 2
{5}
н/о н/о +25.9 +10.6 38 +27 +27 жарко 1015.9 967.8
14 17.09 СВ 2
{4}
н/о н/о +26.4 +10.2 36 +27 +27 жарко 1015.5 967.5
15 17.09 С 2
{7}
н/о н/о +25.9 +10.1 37 +27 +27 жарко 1015.5 967.4
16 17.09 С 2
{6}
н/о н/о +25.5 +11.1 40 +27 +27 жарко 1015.4 967.3
17 17.09 В 2
{6}
н/о н/о +23.8 +11.2 45 +25 +25 комфорт 1015.8 967.4
18 17.09 СВ 1
{7}
н/о н/о +20.3 +12.2 60 +23 +23 комфорт 1017.0 967.9 +26.6
19 17.09 В 2
{3}
н/о н/о +18.4 +12.9 70 +19 +19 1018.0 968.5
20 17.09 В 3
{5}
н/о н/о +17.6 +12.7 73 +18 +18 1018.7 969.1
21 17.09 В 3
{5}
н/о н/о +16.5 +11.8 74 +16 +16 1019.4 969.5
22 17.09 СВ 3
{5}
н/о н/о +15.3 +11.1 76 +15 +15 1019.9 969.8
23 17.09 В 3
{5}
н/о н/о +15.3 +11.2 77 +15 +15 1019.8 969.7
00 18.09 В 4
{5}
н/о н/о +15.4 +10.4 72 +15 +15 1020.0 969.9
01 18.09 В 4
{7}
н/о н/о +15.1 +9.2 68 +14 +14 1019.8 969.7
02 18.09 В 5
{8}
н/о н/о +14.5 +9.2 70 +13 +13 1020.1 969.8
03 18.09 В 4
{8}
н/о н/о +13.8 +8.7 71 +12 +12 1020.4 970.0
04 18.09 В 5
{7}
н/о н/о +13.9 +7.5 65 +12 +12 1020.6 970.2
05 18.09 В 6
{9}
н/о н/о +13.9 +6.4 61 +12 +12 1020.8 970.4
06 18.09 В 6
{10}
н/о н/о +13.7 +6.1 60 +12 +12 1021.2 970.7 +12.7
07 18.09 В 6
{11}
н/о н/о +13.8 +6.6 62 +12 +12 1021.3 970.9
08 18.09 В 6
{11}
н/о н/о +14.3 +7.1 62 +13 +13 1021.6 971.2
09 18.09 В 5
{11}
н/о н/о +15.2 +7.7 61 +14 +14 1021.2 971.0
10 18.09 В 6
{10}
н/о н/о +16.9 +8.1 56 +16 +16 1020.7 970.8
11 18.09 В 7
{10}
н/о н/о +17.7 +8.1 53 +17 +17 1020.5 970.8
12 18.09 В 6
{11}
н/о н/о +18.4 +8.1 51 +18 +18 1020.4 970.8
13 18.09 В 7
{12}
н/о н/о +19.8 +8.1 47 +20 +20 1019.9 970.6
14 18.09 В 7
{11}
н/о н/о +20.1 +8.2 46 +21 +21 комфорт 1019.8 970.5
15 18.09 В 7
{12}
н/о н/о +19.7 +8.4 48 +20 +20 1019.7 970.4
16 18.09 В 6
{10}
н/о н/о +19.2 +8.5 50 +20 +20 1019.7 970.3
17 18.09 В 4
{8}
н/о н/о +17.5 +8.4 55 +17 +17 1020.2 970.5
18 18.09 СВ 3
{12}
н/о н/о +14.8 +7.9 63 +14 +14 1021.4 971.1 +20.2
19 18.09 В 2
{5}
н/о н/о +13.4 +7.3 67 +13 +13 1022.3 971.7
20 18.09 В 2
{4}
н/о н/о +11.9 +7.1 72 +11 +11 1022.9 972.0
21 18.09 В 3
{5}
н/о н/о +11.8 +6.6 70 +10 +10 1023.1 972.2
22 18.09 В 4
{6}
н/о н/о +12.4 +5.1 61 +11 +11 1023.1 972.3
23 18.09 В 4
{6}
н/о н/о +11.3 +3.7 59 +9 +9 1023.6 972.6
00 19.09 В 3
{6}
н/о н/о +11.0 +3.4 59 +9 +9 1023.9 972.8
01 19.09 В 3
{5}
н/о н/о +10.2 +3.7 64 +8 +8 1023.8 972.6
02 19.09 СВ 2
{5}
н/о н/о +7.8 +3.7 75 +6 +6 1024.2 972.5
03 19.09 СВ 3
{5}
н/о н/о +6.9 +3.6 79 +4 +4 1024.5 972.6
04 19.09 СВ 3
{6}
н/о н/о +7.3 +3.7 78 +4 +4 1024.3 972.5
05 19.09 СВ 4
{6}
н/о н/о +8.1 +3.6 73 +5 +5 1024.5 972.9
06 19.09 СВ 2
{6}
н/о н/о +7.9 +3.9 76 +6 +6 1025.0 973.3 +6.6
07 19.09 В 4
{7}
н/о н/о +11.2 +3.6 59 +9 +9 1024.8 973.7
08 19.09 В 8
{12}
н/о н/о +13.2 +3.5 52 +11 +11 1024.5 973.8
09 19.09 В 9
{15}
н/о н/о +15.0 +3.4 46 +13 +13 1024.3 973.9
10 19.09 В 11
{15}
н/о н/о +16.3 +2.7 40 +14 +14 1024.0 973.9 0.1
11 19.09 В 9
{15}
н/о н/о +17.8 +2.1 35 +17 +17 1023.5 973.7
12 19.09 В 9
{15}
н/о н/о +18.6 +2.1 33 +18 +18 1023.0 973.3
13 19.09 В 8
{14}
н/о н/о +19.3 +2.3 32 +19 +19 1022.7 973.2
14 19.09 В 8
{12}
н/о н/о +19.3 +1.8 31 +19 +19 1022.6 973.1
15 19.09 В 7
{14}
н/о н/о +19.1 +2.3 33 +19 +19 1022.7 973.1
16 19.09 В 7
{11}
н/о н/о +18.0 +2.2 35 +17 +17 1023.0 973.2
17 19.09 В 7
{11}
н/о н/о +16.6 +2.6 39 +15 +15 1023.6 973.5
18 19.09 СВ 5
{14}
н/о н/о +13.7 +2.7 47 +12 +12 1024.6 974.0 +19.4
19 19.09 В 3
{5}
н/о н/о +12.9 +3.2 52 +12 +12 1025.0 974.2
20 19.09 В 3
{6}
н/о н/о +12.6 +3.4 53 +11 +11 1025.3 974.4
21 19.09 В 4
{7}
н/о н/о +12.4 +3.0 53 +11 +11 1025.7 974.8
22 19.09 В 5
{8}
н/о н/о +12.0 +2.8 53 +10 +10 1025.9 974.9
23 19.09 В 5
{10}
н/о н/о +11.5 +2.6 54 +9 +9 1026.2 975.1
00 20.09 В 4
{10}
н/о н/о +10.9 +2.6 57 +9 +9 1026.3 975.1
01 20.09 В 3
{5}
н/о н/о +9.5 +2.5 62 +8 +8 1026.5 975.0
02 20.09 СВ 2
{5}
н/о н/о +6.3 +2.1 74 +4 +4 1027.1 975.0
03 20.09 СВ 2
{5}
н/о н/о +7.1 +2.5 73 +6 +6 1026.7 974.8
04 20.09 В 2
{4}
н/о н/о +6.8 +2.2 72 +5 +5 1026.7 974.7
05 20.09 В 1
{3}
н/о н/о +5.3 +2.2 80 +4 +4 1027.2 974.9
06 20.09 В 2
{5}
н/о н/о +6.3 +2.9 79 +5 +5 1027.1 975.0 +4.4

 

Местоположение метеостанции Гренхен (Швейцария): широта 47.18 долгота 7.42 высота над уровнем моря 430 м.

В архиве по умолчанию представлена погода в Гренхене за последнюю неделю. Архивные данные за месяц целиком и за предыдущие месяцы, начиная с января 2011 года, Вы можете получить, выбрав интересующий диапазон дат из раскрывающегося списка и нажав кнопку "Ввод!".


*Определитесь, кто Вы:
робот инопланетянин человек

Внимание! Время в таблицах - всемирное. Для получения местного времени необходимо прибавить поправку, которая равна 1 ч.

Смотрите также архив погоды в соседних городах и на ближайших метеорологических станциях:

Погода в Оберёш-Коппигене (Швейцария) (16 км)
Погода в Делемоне (Швейцария) (22 км)
Погода в Веве (Швейцария) (22 км)
Погода в Мюлеберге (Швейцария) (25 км)
Погода на Шасрале (Швейцария) (27 км)
Погода в Берне (Швейцария) (28 км)
Погода в Винау (Швейцария) (28 км)
Погода в Кресье (Швейцария) (30 км)
Погода в Лангенбруке (Швейцария) (32 км)
Погода в Лангнау-им-Эмментале (Швейцария) (40 км)

Пояснения к столбцам:

Ветер - указаны скорость ветра в м/с - средняя за 10 мин, порывы в срок и между сроками (в фигурных скобках) и направление, откуда дует ветер: С - северный, СВ - северо-восточный, В - восточный, ЮВ - юго-восточный, Ю - южный, ЮЗ - юго-западный, З - западный, СЗ - северо-западный.
Видимость - горизонтальная дальность видимости в метрах или километрах. При видимости от 1 до 10 км при отсутствии осадков обычно наблюдается дымка, при ухудшении видимости до 1 км и менее - туман. В сухую погоду видимость может ухудшаться дымом, пылью или мглою.
Явления - указаны атмосферные явления, наблюдавшиеся в срок или в последний час перед сроком; фигурными скобками обозначены явления, наблюдавшиеся между сроками (за 1-3 часа до срока); квадратными скобками обозначены град или гололедные отложения с указанием их диаметра в мм.
Облачность - указаны через наклонную черту общая и нижняя облачность в баллах и высота нижней границы облаков в метрах; квадратными скобками обозначены формы облаков: Ci - перистые, Cs - перисто-слоистые, Cc - перисто-кучевые, Ac - высококучевые, As - высокослоистые, Sc - слоисто-кучевые, Ns - слоисто-дождевые, Cu - кучевые, Cb - кучево-дождевые. Подробнее классификацию облаков см. в Атласе облаков (PDF).
T - Температура воздуха - температура, измеренная на высоте 2 м над землей.
Td - Температура точки росы - температура, при понижении до которой содержащийся в воздухе водяной пар достигнет насыщения.
f - Относительная влажность воздуха - влажноcть воздуха, измеренная на высоте 2 м над землей.
Te - Эффективная температура - температура, которую ощущает одетый по сезону человек в тени. Характеристика душности погоды. При расчете учитывается влияние влажности воздуха и скорости ветра на теплоощущения человека.
Tes - Эффективная температура на солнце - температура, которую ощущает человек, с поправкой на солнечный нагрев. Характеристика знойности погоды. Зависит от высоты солнца над горизонтом, облачности и скорости ветра. Ночью, в пасмурную погоду, а также при ветре 12 м/с и более поправка равна нулю.
P - Атмосферное давление - приведенное к уровню моря атмосферное давление.
Po - Атмосферное давление - измеренное на уровне метеостанции атмосферное давление.
Tmin - Минимальная температура - минимум температуры воздуха на высоте 2 м над землей.
Tmax - Максимальная температура - максимум температуры воздуха на высоте 2 м над землей.
R - Количество осадков - Количество выпавших осадков за период времени, мм. При наведении курсора мыши на число - период времени, за который выпало указанное количество осадков.
R24 - Количество осадков - Количество выпавших осадков за 24 часа, мм.
S - Снежный покров - Высота снежного покрова, см. При наведении курсора мыши на число - состояние снежного покрова и степень покрытия местности в баллах.